Orbital Elements at Epoch 2459000.5 (2020-May-31.0) TDB
Reference: JPL 22 (heliocentric ecliptic J2000)
Element | Value | Uncertainty (1-sigma) | Units |
e | .2413731201551154 | 3.9002e-08 | |
a | 2.355082277563893 | 1.0091e-08 | au |
q | 1.78662872000628 | 9.2998e-08 | au |
i | 5.221702235483235 | 4.5951e-06 | deg |
node | 327.4706826125733 | 3.4976e-05 | deg |
peri | 30.09794073068161 | 3.5994e-05 | deg |
M | 97.89228564760251 | 7.9856e-06 | deg |
tp | 2458641.533829982679 (2019-Jun-07.03382998) | 2.834e-05 | TDB |
period | 1320.102195503291 3.61 | 8.4848e-06 2.323e-08 | d yr |
n | .2727061595884623 | 1.7528e-09 | deg/d |
Q | 2.923535835121505 | 1.2527e-08 | au |
|
| | Orbit Determination Parameters
Additional Information
|